Regional Weather Roundup
Issued by NWS Upton, NY

Current Version | Previous Version | Text Only | Print | Product List | Glossary Off
Versions: 1 2 3 4 5 6 7 8 9 10 11 12 13 14 15 16 17 18 19 20 21 22 23 24
000 ASUS41 KOKX 220905 RWROKX Regional Weather Roundup National Weather Service New York NY 500 AM EDT TUE MAY 22 2018 Note: "FAIR" indicates few or no clouds below 12,000 feet with no significant weather and/or obstructions to visibility. NYZ071-072-176-178-NJZ106-104-221000- New York City Metro Area CITY SKY/WX TMP DP RH WIND PRES REMARKS Central Park FAIR 64 49 57 CALM 30.18S Bronx Bot Gard N/A 59 48 67 CALM 30.15S Bronx Lehman C N/A 64 50 59 S2 N/A LaGuardia Arpt CLOUDY 65 47 52 S3 30.14F Queens College N/A 63 50 63 S3 N/A Kennedy Intl CLOUDY 59 54 83 S3 30.16F Breezy Point N/A 57 N/A N/A CALM N/A Brooklyn Coll N/A 61 52 72 SE2 N/A Staten Island N/A 59 52 77 SE3 N/A Newark/Liberty CLOUDY 61 51 70 CALM 30.15F Teterboro FAIR 62 50 64 S3 30.14F $$ NYZ177-179-078>081-221000- Long Island New York CITY SKY/WX TMP DP RH WIND PRES REMARKS Jones Beach N/A 57 N/A N/A S5 N/A Wantagh N/A 57 54 88 E2 N/A Hempstead N/A 57 54 88 CALM 30.19F Matinecock Pt N/A 57 N/A N/A E2 N/A Farmingdale FAIR 56 53 90 CALM 30.16S MacArthur/ISP FAIR 54 52 93 E3 30.16S Stony Brook N/A 55 50 82 S1 N/A Shirley FAIR 51 51 100 CALM 30.17S Mt Sinai Harb N/A N/A N/A N/A S2 N/A Westhampton FAIR 46 42 86 CALM 30.19S East Hampton FAIR 46 44 93 CALM 30.17S Southold N/A 52 50 93 SW2 N/A Montauk N/A 55 52 89 S3 30.19R $$ NYZ052-065-067-221000- Hudson Valley CITY SKY/WX TMP DP RH WIND PRES REMARKS White Plains FAIR 58 50 75 CALM 30.15F Larchmont Harb N/A 55 N/A N/A N2 N/A Croton On Huds N/A 57 N/A N/A E2 N/A Somers N/A 54 52 94 N2 N/A Brewster N/A 52 50 93 NW1 N/A Newburgh CLEAR 59 55 88 CALM 30.15F Montgomery FAIR 55 53 93 CALM 30.13F Otisville N/A 54 54 100 CALM N/A Warwick N/A 55 55 100 E2 N/A Suffern N/A 55 52 88 E1 N/A Poughkeepsie FAIR 55 52 89 CALM 30.13F Albany CLOUDY 57 48 72 CALM 30.14F $$ NJZ001-105-106-008-010-013-015-019>022-104-221000- New Jersey CITY SKY/WX TMP DP RH WIND PRES REMARKS Newark/Liberty CLOUDY 61 51 70 CALM 30.15F Teterboro FAIR 62 50 64 S3 30.14F Caldwell FAIR 59 55 87 CALM 30.14F Somerville FAIR 54 54 100 CALM 30.12F Linden FAIR 60 51 73 CALM 30.16 Perth Amboy N/A 57 N/A N/A SE3 N/A Sussex FAIR 55 54 96 CALM 30.13F Andover N/A 57 55 93 CALM 30.13F Trenton MOCLDY 58 54 86 CALM 30.13F Millville FAIR 54 53 97 SE3 30.13F Atlantic City FAIR 53 52 96 CALM 30.14F Wrightstown CLOUDY 54 52 94 E3 30.12F Toms River CLOUDY 51 49 92 CALM 30.17S Belmar FAIR 53 51 93 E6 30.17S $$ PAZ047>061-062-071-221000- Eastern Pennsylvania CITY SKY/WX TMP DP RH WIND PRES REMARKS Philadelphia CLOUDY 60 55 83 CALM 30.13F Allentown FAIR 62 54 74 CALM 30.12F Scranton CLOUDY 60 52 74 E6 30.10F $$ CTZ002-004>006-009-010-012-RIZ004-006-007-MAZ004-011-015-221000- Southern New England In CT CITY SKY/WX TMP DP RH WIND PRES REMARKS Bradley Intl MOCLDY 51 49 92 CALM 30.16S Hartford FAIR 54 53 97 CALM 30.16S Danbury FAIR 53 51 93 CALM 30.17F Wtrbury/Oxford FAIR 53 50 89 CALM 30.17S Norwalk Harbor N/A 55 N/A N/A NE5 N/A Bridgeport FAIR 55 52 89 CALM 30.16S Meriden FAIR 52 51 97 CALM 30.17R New Haven FAIR 52 51 97 CALM 30.17R Chester FAIR 52 52 100 MISG 30.17S Groton FAIR 51 50 96 CALM 30.17R Willimantic FAIR 50 49 96 CALM 30.17F In RI CITY SKY/WX TMP DP RH WIND PRES REMARKS Providence FAIR 54 50 86 CALM 30.17R Block Island N/A N/A N/A N/A MISG N/A Westerly FAIR 50 49 96 CALM 30.18R In MA CITY SKY/WX TMP DP RH WIND PRES REMARKS Boston MOCLDY 61 49 64 W5 30.15S Worcester FAIR 60 43 53 NW6 30.17S Westfield FAIR 51 50 96 CALM 30.17R Provincetown FAIR 51 49 92 S5 30.17R Nantucket FAIR 51 50 96 SW9 30.18R $$ ANZ330-335-338-340-345-350-353-355-221000- Coastal Marine Observations STATION/POSITION TIME SKY/WX TEMP WIND PRES VSBY WAVE AIR SEA DIR/SP/G HT/PER (UTC) (F) (DEG/KT/KT) (MB) (MI) (FT/S) NY Harb Entrance 0850 56 55 170/ 2/ 4 1021.5 3/ 9 20 S Fire Island 0850 54 53 160/ 4/ 6 1021.7 3/ 9 23 SSW Montauk P 0850 53 52 180/ 2/ 4 1022.3 3/ 9 15 E Barnegat Li 0830 56 N/A 3/ 8 Hudson Canyon 0850 54 53 60/ 2/ 4 1021.5 3/ 9 Kings Point 0842 61 56 170/ 2/ 4 1022.0 Execution Rocks NOT AVBL Western LI Sound NOT AVBL Central LI Sound 0845 55 190/ 4/ 6 N/A 0 Robbins Reef 0842 60 180/ 6/ 6 1021.6 $$ >>>>>>>>>>>>>>>>>>>>>>>>>>>> KEY <<<<<<<<<<<<<<<<<<<<<<<<<<< > < > SKY/WX - Sky Condition/Present Weather < > TMP - Temperature in Fahrenheit < > DP - Dew Point in Fahrenheit < > RH - Relative Humidity in Percent < > WIND - Direction (from) and Speed in MPH < > PRES - Mean Sea Level Pressure (inches of Hg) < > WCI - Wind Chill Index < > VSB - Visibility in Miles < > HX - Heat Index < > TC - Temperature in Celsius < > VRB - Varibale Wind Direction < > < >>>>>>>>>>>>>>>>>>>>>>>>>>>> KEY <<<<<<<<<<<<<<<<<<<<<<<<<<<

USA.gov is the U.S. government's official web portal to all federal, state and local government web resources and services.